Flag for Canada Weather past 2 weeks in Victoria, British Columbia, Canada

30 °F

Ice fog.

Feels Like: 24 °F
Forecast: 35 / 44 °F
Wind: 6 mph from West

Location: Victoria Int. Airportb. C.

Current Time: Nov 30, 2015 at 5:30:04 AM

Latest Report: Nov 30, 2015 at 5:00 AM

Visibility: 2 mi

Pressure: 30.13 "Hg

Humidity: 93%

Dew point: 28 °F

Location of VictoriaLocation

Historic Weather in Victoria — Graph


Victoria temperature yesterday

Maximum temperature yesterday: 41 °F (at 2:00 PM)
Minimum temperature yesterday: 30 °F (at 11:00 PM)
Average temperature yesterday: 34 °F

Past Weeks' High & Low Weather Summary

High59 °F (Nov 17, 10:00 AM)100% (Nov 15, 7:00 AM)30.59 "Hg (Nov 15, 7:00 AM)
Low27 °F (Nov 28, 12:00 AM)37% (Nov 25, 1:00 PM)29.39 "Hg (Nov 17, 11:49 AM)
Average38 °F85%30.16 "Hg
* Reported Nov 15 4:00 AM — Nov 30 4:00 AM, Victoria, Weather by CustomWeather, © 2015

Note: Actual official high and low records may vary slightly from our data, if they occured in-between our weather recording intervals... More about our weather records


Victoria weather history for previous 24 hours

Time TempWeatherWind HumidityBarometerVisibility
4:00 AM
Mon, Nov 30
30 °FIce fog.8 mph100%30.14 "Hg1 mi
3:00 AM32 °FIce fog.7 mph93%30.14 "Hg1 mi
2:00 AM32 °FIce fog.7 mph93%30.15 "Hg1 mi
1:00 AM30 °FIce fog.8 mph100%30.15 "Hg1 mi
12:00 AM32 °FIce fog.6 mph93%30.16 "Hg5 mi
11:00 PM
Sun, Nov 29
30 °FIce fog.5 mph100%30.16 "Hg5 mi
10:00 PM32 °FIce fog.5 mph93%30.16 "Hg5 mi
9:00 PM34 °FFog.6 mph93%30.17 "Hg5 mi
8:00 PM34 °FFog.5 mph93%30.17 "Hg5 mi
7:00 PM32 °FIce fog.5 mph100%30.18 "Hg6 mi
6:00 PM32 °FPassing clouds.5 mph93%30.18 "Hg20 mi
5:00 PM34 °FPassing clouds.2 mph93%30.18 "Hg20 mi
4:00 PM36 °FPassing clouds.3 mph93%30.19 "Hg30 mi
3:00 PM41 °FPassing clouds.2 mph81%30.17 "Hg30 mi
2:00 PM41 °FPassing clouds.5 mph81%30.18 "Hg30 mi
1:00 PM39 °FPassing clouds.6 mph87%30.20 "Hg30 mi
12:00 PM37 °FPassing clouds.7 mph87%30.21 "Hg20 mi
11:00 AM37 °FBroken clouds.7 mph87%30.24 "Hg15 mi
10:00 AM34 °FBroken clouds.7 mph100%30.24 "Hg10 mi
9:00 AM34 °FFog.8 mph100%30.24 "Hg4 mi
8:51 AM32 °FIce fog.9 mph100%30.24 "Hg2 mi
8:00 AM32 °FIce fog.8 mph100%30.24 "Hg2 mi
7:00 AM32 °FIce fog.9 mph100%30.24 "Hg2 mi
6:00 AM32 °FIce fog.8 mph100%30.24 "Hg2 mi
5:00 AM34 °FFog.8 mph100%30.24 "Hg3 mi
Weather by CustomWeather, © 2015

See weather overviewHow to use our weather pages